�������l�o���
Date,Time,MP-1(��Sv/h),MP-2(��Sv/h),MP-3(��Sv/h),MP-4(��Sv/h),MP-5(��Sv/h),MP-6(��Sv/h),MP-7(��Sv/h),MP-8(��Sv/h),����,����(m/s),���J
2022/06/23,00:00,0.580,0.856,0.537,1.026,0.727,0.343,0.595,0.561,�k�k��,1.9,��
2022/06/23,00:10,0.580,0.856,0.537,1.025,0.728,0.343,0.595,0.561,�k�k��,1.2,��
2022/06/23,00:20,0.580,0.855,0.539,1.025,0.725,0.343,0.594,0.562,�k,1.2,��
2022/06/23,00:30,0.580,0.854,0.537,1.026,0.728,0.343,0.595,0.562,�k�k��,1.1,��
2022/06/23,00:40,0.579,0.856,0.538,1.025,0.728,0.343,0.594,0.562,�k�k��,1.7,��
2022/06/23,00:50,0.579,0.855,0.538,1.026,0.729,0.343,0.593,0.561,�k�k��,2.0,��
2022/06/23,01:00,0.578,0.856,0.537,1.027,0.728,0.343,0.593,0.560,�k,2.3,�L
2022/06/23,01:10,0.579,0.856,0.539,1.025,0.728,0.345,0.594,0.560,�k�k��,1.5,��
2022/06/23,01:20,0.579,0.854,0.538,1.024,0.728,0.342,0.594,0.561,�k�k��,1.7,�L
2022/06/23,01:30,0.579,0.857,0.537,1.024,0.727,0.343,0.593,0.561,�k��,0.9,�L
2022/06/23,01:40,0.579,0.856,0.537,1.024,0.729,0.344,0.594,0.562,���k��,0.8,�L
2022/06/23,01:50,0.580,0.855,0.539,1.025,0.729,0.345,0.593,0.561,-,CALM,�L
2022/06/23,02:00,0.580,0.852,0.536,1.026,0.728,0.345,0.593,0.561,-,CALM,�L
2022/06/23,02:10,0.582,0.855,0.536,1.024,0.729,0.345,0.592,0.561,-,CALM,�L
2022/06/23,02:20,0.579,0.856,0.538,1.027,0.727,0.344,0.594,0.562,-,CALM,�L
2022/06/23,02:30,0.582,0.857,0.539,1.025,0.724,0.343,0.592,0.563,-,CALM,�L
2022/06/23,02:40,0.580,0.854,0.538,1.026,0.725,0.344,0.594,0.561,-,CALM,��
2022/06/23,02:50,0.580,0.855,0.537,1.023,0.726,0.344,0.594,0.561,-,CALM,��
2022/06/23,03:00,0.580,0.853,0.536,1.025,0.727,0.344,0.594,0.561,��,0.8,��
2022/06/23,03:10,0.581,0.856,0.538,1.024,0.726,0.344,0.593,0.561,-,CALM,�L
2022/06/23,03:20,0.579,0.855,0.537,1.023,0.727,0.343,0.593,0.562,��,0.6,�L
2022/06/23,03:30,0.580,0.852,0.536,1.023,0.724,0.345,0.592,0.561,-,CALM,�L
2022/06/23,03:40,0.579,0.854,0.538,1.026,0.728,0.345,0.593,0.563,-,CALM,�L
2022/06/23,03:50,0.581,0.852,0.539,1.025,0.724,0.344,0.594,0.561,-,CALM,��
2022/06/23,04:00,0.581,0.853,0.538,1.025,0.727,0.344,0.593,0.561,-,CALM,�L
2022/06/23,04:10,0.580,0.855,0.536,1.024,0.727,0.344,0.591,0.562,-,CALM,�L
2022/06/23,04:20,0.580,0.853,0.537,1.024,0.727,0.344,0.591,0.561,�k�k��,0.6,�L
2022/06/23,04:30,0.580,0.853,0.536,1.024,0.724,0.343,0.593,0.563,�k�k��,0.8,�L
2022/06/23,04:40,0.581,0.854,0.538,1.023,0.725,0.344,0.594,0.561,�k,1.2,�L
2022/06/23,04:50,0.578,0.854,0.537,1.021,0.725,0.344,0.594,0.561,�k�k��,1.4,�L
2022/06/23,05:00,0.580,0.850,0.535,1.024,0.725,0.344,0.592,0.562,�k,1.2,�L
2022/06/23,05:10,0.580,0.851,0.536,1.024,0.727,0.344,0.592,0.560,�k�k��,0.9,�L
2022/06/23,05:20,0.580,0.852,0.536,1.024,0.725,0.345,0.592,0.561,�k��,1.9,�L
2022/06/23,05:30,0.579,0.851,0.538,1.023,0.723,0.343,0.592,0.562,�k�k��,1.4,�L
2022/06/23,05:40,0.580,0.854,0.536,1.025,0.725,0.343,0.592,0.560,�k�k��,0.9,��
2022/06/23,05:50,0.577,0.852,0.536,1.023,0.725,0.343,0.593,0.561,�k��,0.9,��
2022/06/23,06:00,0.578,0.853,0.537,1.023,0.726,0.342,0.591,0.561,���k��,1.1,��
2022/06/23,06:10,0.579,0.853,0.537,1.023,0.725,0.342,0.594,0.562,��,0.8,��
2022/06/23,06:20,0.578,0.853,0.536,1.024,0.724,0.345,0.592,0.560,��,0.9,��
2022/06/23,06:30,0.578,0.854,0.536,1.025,0.724,0.343,0.592,0.560,��,0.9,��
2022/06/23,06:40,0.578,0.852,0.536,1.023,0.726,0.344,0.592,0.562,���쓌,1.2,��
2022/06/23,06:50,0.580,0.853,0.536,1.024,0.725,0.343,0.591,0.563,���쓌,0.8,��
2022/06/23,07:00,0.578,0.853,0.534,1.022,0.726,0.343,0.592,0.559,�k��,0.9,��
2022/06/23,07:10,0.579,0.853,0.537,1.023,0.725,0.343,0.592,0.562,�k�k��,0.9,��
2022/06/23,07:20,0.580,0.852,0.537,1.023,0.724,0.343,0.593,0.562,�k�k��,1.2,��
2022/06/23,07:30,0.579,0.851,0.536,1.023,0.725,0.342,0.591,0.559,�k��,1.5,��
2022/06/23,07:40,0.579,0.852,0.534,1.023,0.724,0.342,0.592,0.561,���k��,1.1,��
2022/06/23,07:50,0.577,0.849,0.535,1.023,0.724,0.343,0.593,0.560,�k�k��,0.9,��
2022/06/23,08:00,0.579,0.853,0.537,1.025,0.726,0.341,0.593,0.560,�k��,1.1,��
2022/06/23,08:10,0.577,0.850,0.536,1.023,0.723,0.341,0.592,0.560,�k�k��,1.7,��
2022/06/23,08:20,0.577,0.851,0.534,1.024,0.726,0.342,0.591,0.558,�k��,1.4,��
2022/06/23,08:30,0.578,0.848,0.536,1.024,0.725,0.343,0.592,0.561,�k�k��,1.2,��
2022/06/23,08:40,0.580,0.848,0.536,1.021,0.726,0.342,0.592,0.559,�k��,1.1,��
2022/06/23,08:50,0.577,0.846,0.534,1.024,0.725,0.343,0.592,0.559,�k��,1.1,��
2022/06/23,09:00,0.579,0.849,0.536,1.022,0.724,0.342,0.592,0.559,�k��,1.4,��
2022/06/23,09:10,0.580,0.848,0.535,1.024,0.724,0.343,0.592,0.560,�k,0.6,��
2022/06/23,09:20,0.580,0.849,0.537,1.024,0.723,0.342,0.591,0.561,��,0.9,��
2022/06/23,09:30,0.579,0.850,0.535,1.024,0.723,0.342,0.593,0.559,�쐼,1.2,��
2022/06/23,09:40,0.579,0.850,0.537,1.023,0.725,0.343,0.592,0.559,�쐼,1.2,��
2022/06/23,09:50,0.580,0.849,0.537,1.024,0.726,0.341,0.593,0.558,���쐼,1.2,��
2022/06/23,10:00,0.580,0.848,0.538,1.024,0.724,0.343,0.591,0.559,���쐼,0.8,��
2022/06/23,10:10,0.579,0.848,0.535,1.024,0.724,0.343,0.591,0.560,�쓌,0.9,��
2022/06/23,10:20,0.578,0.846,0.537,1.024,0.723,0.342,0.592,0.560,��,0.6,��
2022/06/23,10:30,0.578,0.848,0.534,1.024,0.724,0.342,0.593,0.558,��,0.9,��
2022/06/23,10:40,0.578,0.849,0.535,1.024,0.723,0.344,0.594,0.559,��쓌,1.2,��
2022/06/23,10:50,0.582,0.848,0.536,1.021,0.724,0.342,0.593,0.561,�쓌,1.2,��
2022/06/23,11:00,0.579,0.850,0.537,1.023,0.725,0.341,0.593,0.560,���쓌,1.7,��
2022/06/23,11:10,0.579,0.851,0.535,1.025,0.723,0.342,0.592,0.559,��,1.7,��
2022/06/23,11:20,0.580,0.851,0.536,1.022,0.723,0.343,0.593,0.561,���k��,1.7,��
2022/06/23,11:30,0.580,0.851,0.536,1.024,0.721,0.341,0.593,0.559,���k��,1.5,��
2022/06/23,11:40,0.580,0.850,0.536,1.023,0.724,0.342,0.593,0.559,���쓌,1.2,��
2022/06/23,11:50,0.581,0.851,0.537,1.021,0.726,0.343,0.591,0.559,�쓌,0.9,��
2022/06/23,12:00,0.579,0.853,0.534,1.023,0.724,0.343,0.592,0.559,�쓌,1.7,��
2022/06/23,12:10,0.580,0.853,0.536,1.024,0.724,0.343,0.593,0.559,�쓌,1.5,��
2022/06/23,12:20,0.579,0.853,0.537,1.025,0.725,0.343,0.593,0.559,��쓌,2.0,��
2022/06/23,12:30,0.580,0.854,0.536,1.023,0.725,0.343,0.591,0.560,��쓌,1.5,��
2022/06/23,12:40,0.582,0.853,0.538,1.024,0.725,0.343,0.594,0.559,��쓌,1.4,��
2022/06/23,12:50,0.580,0.854,0.538,1.022,0.727,0.342,0.593,0.559,��쓌,1.9,��
2022/06/23,13:00,0.583,0.854,0.538,1.025,0.725,0.341,0.594,0.561,��쓌,1.7,��
2022/06/23,13:10,0.579,0.852,0.537,1.022,0.725,0.342,0.593,0.558,��쓌,2.0,��
2022/06/23,13:20,0.581,0.855,0.536,1.021,0.727,0.342,0.594,0.560,��쓌,2.3,��
2022/06/23,13:30,0.580,0.853,0.539,1.023,0.727,0.345,0.594,0.560,��쓌,2.6,��
2022/06/23,13:40,0.577,0.854,0.538,1.022,0.726,0.343,0.594,0.560,��쓌,2.3,��
2022/06/23,13:50,0.579,0.855,0.537,1.023,0.728,0.344,0.595,0.560,�쓌,3.0,��
2022/06/23,14:00,0.580,0.855,0.539,1.022,0.727,0.343,0.592,0.560,��쓌,2.8,��
2022/06/23,14:10,0.579,0.855,0.535,1.023,0.726,0.343,0.593,0.560,��쓌,2.9,��
2022/06/23,14:20,0.579,0.857,0.538,1.023,0.725,0.343,0.594,0.559,��쓌,4.1,��
2022/06/23,14:30,0.581,0.855,0.538,1.024,0.727,0.344,0.595,0.561,��쓌,4.4,��
2022/06/23,14:40,0.580,0.855,0.537,1.023,0.727,0.343,0.593,0.559,��쓌,4.0,��
2022/06/23,14:50,0.581,0.855,0.539,1.026,0.728,0.343,0.593,0.559,��쓌,6.0,��
2022/06/23,15:00,0.581,0.856,0.537,1.023,0.726,0.343,0.594,0.561,��쓌,5.6,��
2022/06/23,15:10,0.581,0.853,0.538,1.022,0.728,0.342,0.593,0.560,��,5.5,��
2022/06/23,15:20,0.581,0.857,0.538,1.022,0.728,0.343,0.593,0.562,��쓌,5.0,��
2022/06/23,15:30,0.581,0.857,0.538,1.023,0.728,0.343,0.594,0.562,��쓌,6.5,��
2022/06/23,15:40,0.582,0.857,0.539,1.024,0.725,0.343,0.594,0.561,��쓌,6.7,��
2022/06/23,15:50,0.582,0.856,0.538,1.024,0.729,0.344,0.594,0.560,��쓌,6.5,��
2022/06/23,16:00,0.582,0.858,0.538,1.026,0.729,0.343,0.595,0.561,��쓌,6.9,��
2022/06/23,16:10,0.582,0.857,0.539,1.026,0.729,0.345,0.595,0.561,��쓌,5.8,��
2022/06/23,16:20,0.582,0.860,0.538,1.026,0.729,0.342,0.594,0.560,��쓌,5.9,��
2022/06/23,16:30,0.583,0.858,0.538,1.027,0.728,0.344,0.595,0.561,��쓌,5.9,��
2022/06/23,16:40,0.582,0.856,0.538,1.027,0.728,0.344,0.595,0.561,��,6.4,��
2022/06/23,16:50,0.582,0.859,0.539,1.027,0.726,0.343,0.596,0.560,��,7.1,��
2022/06/23,17:00,0.583,0.857,0.539,1.026,0.726,0.344,0.595,0.560,��,7.8,��
2022/06/23,17:10,0.583,0.858,0.541,1.027,0.728,0.343,0.595,0.560,��,7.6,��
2022/06/23,17:20,0.581,0.858,0.538,1.028,0.728,0.343,0.596,0.560,��,7.0,��
2022/06/23,17:30,0.582,0.856,0.541,1.026,0.726,0.343,0.595,0.559,��,6.7,��
2022/06/23,17:40,0.582,0.858,0.540,1.026,0.726,0.344,0.595,0.562,��,7.1,��
2022/06/23,17:50,0.582,0.859,0.540,1.028,0.726,0.343,0.595,0.562,��,6.9,��
2022/06/23,18:00,0.580,0.858,0.539,1.026,0.727,0.342,0.596,0.561,��,7.2,��
2022/06/23,18:10,0.580,0.857,0.538,1.027,0.728,0.343,0.593,0.561,��,7.1,��
2022/06/23,18:20,0.581,0.857,0.539,1.028,0.727,0.343,0.595,0.561,��,6.7,��
2022/06/23,18:30,0.582,0.857,0.541,1.028,0.728,0.343,0.595,0.561,��,6.1,��
2022/06/23,18:40,0.581,0.860,0.540,1.026,0.726,0.343,0.596,0.561,��,7.0,��
2022/06/23,18:50,0.580,0.858,0.541,1.029,0.729,0.343,0.594,0.561,��,6.8,��
2022/06/23,19:00,0.583,0.859,0.539,1.025,0.728,0.343,0.595,0.561,��,6.8,��
2022/06/23,19:10,0.581,0.859,0.538,1.027,0.728,0.342,0.595,0.562,��,6.5,��
2022/06/23,19:20,0.582,0.858,0.541,1.028,0.727,0.342,0.595,0.562,��,5.9,��
2022/06/23,19:30,0.581,0.858,0.540,1.028,0.728,0.344,0.595,0.562,��쓌,7.9,��
2022/06/23,19:40,0.581,0.859,0.541,1.025,0.727,0.343,0.594,0.561,��쓌,7.8,��
2022/06/23,19:50,0.582,0.858,0.541,1.029,0.727,0.343,0.595,0.562,��쓌,8.7,��
2022/06/23,20:00,0.580,0.860,0.540,1.027,0.728,0.343,0.595,0.563,��,6.9,��
2022/06/23,20:10,0.581,0.859,0.540,1.027,0.727,0.344,0.597,0.561,��,8.0,��
2022/06/23,20:20,0.582,0.858,0.540,1.027,0.729,0.344,0.596,0.563,��,8.2,��
2022/06/23,20:30,0.580,0.860,0.539,1.029,0.727,0.343,0.595,0.562,��,8.0,��
2022/06/23,20:40,0.581,0.858,0.540,1.026,0.727,0.345,0.595,0.561,��,8.1,��
2022/06/23,20:50,0.580,0.860,0.540,1.029,0.724,0.343,0.597,0.561,��,8.9,��
2022/06/23,21:00,0.580,0.860,0.540,1.028,0.726,0.345,0.597,0.562,��쓌,10.7,��
2022/06/23,21:10,0.582,0.857,0.539,1.026,0.726,0.345,0.596,0.563,��,9.6,��
2022/06/23,21:20,0.581,0.859,0.541,1.026,0.727,0.344,0.596,0.563,��,8.8,��
2022/06/23,21:30,0.583,0.858,0.541,1.026,0.729,0.343,0.595,0.562,��,9.2,��
2022/06/23,21:40,0.582,0.858,0.540,1.027,0.729,0.343,0.599,0.562,��,8.2,��
2022/06/23,21:50,0.581,0.857,0.540,1.029,0.728,0.344,0.597,0.562,��,8.7,��
2022/06/23,22:00,0.582,0.859,0.540,1.029,0.726,0.344,0.597,0.564,��,7.6,��
2022/06/23,22:10,0.583,0.859,0.540,1.030,0.728,0.342,0.597,0.561,��,7.9,��
2022/06/23,22:20,0.582,0.857,0.540,1.027,0.726,0.344,0.597,0.563,��,7.7,��
2022/06/23,22:30,0.583,0.857,0.540,1.029,0.727,0.343,0.596,0.562,��,7.9,��
2022/06/23,22:40,0.582,0.858,0.540,1.027,0.726,0.344,0.597,0.563,��,6.3,��
2022/06/23,22:50,0.581,0.858,0.540,1.026,0.727,0.344,0.598,0.562,��,6.9,��
2022/06/23,23:00,0.582,0.858,0.538,1.028,0.728,0.344,0.598,0.563,��,8.1,��
2022/06/23,23:10,0.581,0.858,0.540,1.028,0.727,0.345,0.596,0.562,��,7.3,��
2022/06/23,23:20,0.583,0.857,0.542,1.029,0.728,0.346,0.598,0.564,��,6.0,��
2022/06/23,23:30,0.582,0.858,0.541,1.028,0.728,0.344,0.598,0.563,��,7.0,��
2022/06/23,23:40,0.582,0.858,0.541,1.027,0.730,0.343,0.598,0.563,��,6.7,��
2022/06/23,23:50,0.583,0.857,0.541,1.028,0.729,0.343,0.598,0.563,��,7.3,��
